• Em Portugal
  • Lista de países
  • Para 7 dias
  • Temperatura da água
  • Mapas de satélite
  • Mapa do tempo
  • Widgets de tempo
  • user-avatar
    Iniciar Sessão

    Previsão horária em Shiraz

    Hoje, 18 Julho, Quarta-feira

    Tempo Temperatura Precipitação Vento Pressão Humidade
    00:00 +30°C° 0 mm 2 m/s 631 mmHg 24%
    01:00 +30°C° 0 mm 1 m/s 631 mmHg 25%
    02:00 +29°C° 0 mm 1 m/s 631 mmHg 26%
    03:00 +29°C° 0 mm 1 m/s 631 mmHg 26%
    04:00 +28°C° 0 mm 1 m/s 631 mmHg 28%
    05:00 +29°C° 0 mm 1 m/s 631 mmHg 27%
    06:00 +29°C° 0 mm 1 m/s 632 mmHg 26%
    07:00 +30°C° 0 mm 1 m/s 632 mmHg 25%
    08:00 +31°C° 0 mm 1 m/s 632 mmHg 22%
    09:00 +33°C° 0 mm 1 m/s 633 mmHg 19%
    10:00 +35°C° 0 mm 1 m/s 633 mmHg 17%
    11:00 +37°C° 0 mm 2 m/s 634 mmHg 15%
    12:00 +38°C° 0 mm 3 m/s 634 mmHg 14%
    13:00 +39°C° 0 mm 3 m/s 634 mmHg 13%
    14:00 +40°C° 0 mm 4 m/s 634 mmHg 13%
    15:00 +41°C° 0 mm 4 m/s 634 mmHg 12%
    16:00 +41°C° 0 mm 4 m/s 633 mmHg 11%
    17:00 +40°C° 0 mm 4 m/s 633 mmHg 13%
    18:00 +39°C° 0 mm 5 m/s 633 mmHg 14%
    19:00 +37°C° 0 mm 5 m/s 633 mmHg 16%
    20:00 +36°C° 0 mm 4 m/s 633 mmHg 17%
    21:00 +35°C° 0 mm 3 m/s 633 mmHg 18%
    22:00 +32°C° 0 mm 2 m/s 633 mmHg 20%
    23:00 +32°C° 0 mm 2 m/s 633 mmHg 21%

    Amanhã, 19 Julho, Quinta-feira

    Tempo Temperatura Precipitação Vento Pressão Humidade
    00:00 +31°C° 0 mm 1 m/s 633 mmHg 22%
    01:00 +30°C° 0 mm 1 m/s 633 mmHg 23%
    02:00 +30°C° 0 mm 1 m/s 633 mmHg 24%
    03:00 +29°C° 0 mm 1 m/s 633 mmHg 25%
    04:00 +29°C° 0 mm 1 m/s 632 mmHg 25%
    05:00 +29°C° 0 mm 1 m/s 633 mmHg 25%
    06:00 +30°C° 0 mm 1 m/s 633 mmHg 24%
    07:00 +28°C° 0 mm 0 m/s 633 mmHg 24%
    08:00 +32°C° 0 mm 1 m/s 634 mmHg 21%
    09:00 +33°C° 0 mm 1 m/s 634 mmHg 19%
    10:00 +35°C° 0 mm 1 m/s 635 mmHg 17%
    11:00 +36°C° 0 mm 1 m/s 635 mmHg 16%
    12:00 +38°C° 0 mm 2 m/s 635 mmHg 15%
    13:00 +39°C° 0 mm 2 m/s 635 mmHg 13%
    14:00 +39°C° 0 mm 2 m/s 635 mmHg 13%
    15:00 +40°C° 0 mm 2 m/s 635 mmHg 13%
    16:00 +40°C° 0 mm 3 m/s 634 mmHg 13%
    17:00 +39°C° 0 mm 3 m/s 634 mmHg 14%
    18:00 +38°C° 0 mm 4 m/s 634 mmHg 15%
    19:00 +38°C° 0 mm 4 m/s 634 mmHg 16%
    20:00 +37°C° 0 mm 3 m/s 634 mmHg 18%
    21:00 +36°C° 0 mm 3 m/s 634 mmHg 20%
    22:00 +35°C° 0 mm 2 m/s 634 mmHg 21%
    23:00 +34°C° 0 mm 2 m/s 634 mmHg 23%

    Depois de amanhã, 20 Julho, Sexta-feira

    Tempo Temperatura Precipitação Vento Pressão Humidade
    00:00 +32°C° 0 mm 1 m/s 634 mmHg 24%
    01:00 +32°C° 0 mm 1 m/s 633 mmHg 26%
    02:00 +31°C° 0 mm 1 m/s 633 mmHg 27%
    03:00 +28°C° 0 mm 0 m/s 633 mmHg 28%
    04:00 +28°C° 0 mm 0 m/s 633 mmHg 29%
    05:00 +28°C° 0 mm 0 m/s 633 mmHg 28%
    06:00 +31°C° 0 mm 1 m/s 633 mmHg 26%
    07:00 +31°C° 0 mm 1 m/s 634 mmHg 25%
    08:00 +33°C° 0 mm 1 m/s 634 mmHg 22%
    09:00 +34°C° 0 mm 1 m/s 634 mmHg 19%
    10:00 +36°C° 0 mm 1 m/s 635 mmHg 16%
    11:00 +37°C° 0 mm 1 m/s 635 mmHg 14%
    12:00 +39°C° 0 mm 1 m/s 635 mmHg 12%
    13:00 +40°C° 0 mm 1 m/s 635 mmHg 11%
    14:00 +40°C° 0 mm 2 m/s 635 mmHg 10%
    15:00 +40°C° 0 mm 2 m/s 634 mmHg 10%
    16:00 +41°C° 0 mm 2 m/s 634 mmHg 9%
    17:00 +40°C° 0 mm 2 m/s 634 mmHg 10%
    18:00 +40°C° 0 mm 3 m/s 634 mmHg 10%
    19:00 +39°C° 0 mm 3 m/s 634 mmHg 11%
    20:00 +38°C° 0 mm 2 m/s 634 mmHg 13%
    21:00 +37°C° 0 mm 2 m/s 634 mmHg 14%
    22:00 +34°C° 0 mm 1 m/s 634 mmHg 16%
    23:00 +34°C° 0 mm 1 m/s 634 mmHg 16%

    21 Julho, Sábado

    Tempo Temperatura Precipitação Vento Pressão Humidade
    00:00 +33°C° 0 mm 1 m/s 633 mmHg 16%
    01:00 +32°C° 0 mm 1 m/s 633 mmHg 17%
    02:00 +31°C° 0 mm 1 m/s 633 mmHg 16%
    03:00 +31°C° 0 mm 1 m/s 633 mmHg 15%
    04:00 +30°C° 0 mm 1 m/s 632 mmHg 14%
    05:00 +30°C° 0 mm 1 m/s 633 mmHg 14%
    06:00 +31°C° 0 mm 1 m/s 633 mmHg 13%
    07:00 +31°C° 0 mm 1 m/s 633 mmHg 13%
    08:00 +33°C° 0 mm 1 m/s 634 mmHg 11%
    09:00 +35°C° 0 mm 2 m/s 634 mmHg 10%
    10:00 +37°C° 0 mm 2 m/s 635 mmHg 9%
    11:00 +38°C° 0 mm 2 m/s 635 mmHg 8%
    12:00 +39°C° 0 mm 2 m/s 635 mmHg 8%
    13:00 +40°C° 0 mm 2 m/s 635 mmHg 8%
    14:00 +40°C° 0 mm 2 m/s 634 mmHg 7%
    15:00 +40°C° 0 mm 2 m/s 634 mmHg 7%
    16:00 +41°C° 0 mm 2 m/s 634 mmHg 7%
    17:00 +40°C° 0 mm 2 m/s 634 mmHg 8%
    18:00 +40°C° 0 mm 2 m/s 634 mmHg 8%
    19:00 +39°C° 0 mm 2 m/s 634 mmHg 9%
    20:00 +38°C° 0 mm 2 m/s 634 mmHg 11%
    21:00 +37°C° 0 mm 2 m/s 634 mmHg 12%
    22:00 +36°C° 0 mm 2 m/s 634 mmHg 14%
    23:00 +34°C° 0 mm 1 m/s 633 mmHg 15%

    22 Julho, Domingo

    Tempo Temperatura Precipitação Vento Pressão Humidade
    00:00 +33°C° 0 mm 1 m/s 633 mmHg 17%
    01:00 +32°C° 0 mm 1 m/s 633 mmHg 18%
    02:00 +31°C° 0 mm 1 m/s 632 mmHg 18%
    03:00 +31°C° 0 mm 1 m/s 632 mmHg 19%
    04:00 +30°C° 0 mm 1 m/s 632 mmHg 19%
    05:00 +30°C° 0 mm 1 m/s 632 mmHg 19%
    06:00 +31°C° 0 mm 1 m/s 632 mmHg 19%
    07:00 +31°C° 0 mm 1 m/s 633 mmHg 19%
    08:00 +33°C° 0 mm 1 m/s 633 mmHg 16%
    09:00 +35°C° 0 mm 1 m/s 634 mmHg 13%
    10:00 +36°C° 0 mm 1 m/s 634 mmHg 10%
    11:00 +37°C° 0 mm 1 m/s 634 mmHg 9%
    12:00 +39°C° 0 mm 1 m/s 634 mmHg 9%
    13:00 +40°C° 0 mm 1 m/s 634 mmHg 8%
    14:00 +40°C° 0 mm 2 m/s 634 mmHg 8%
    15:00 +41°C° 0 mm 2 m/s 633 mmHg 8%
    16:00 +41°C° 0 mm 2 m/s 633 mmHg 8%
    17:00 +40°C° 0 mm 3 m/s 633 mmHg 9%
    18:00 +40°C° 0 mm 4 m/s 633 mmHg 10%
    19:00 +40°C° 0 mm 4 m/s 632 mmHg 11%
    20:00 +38°C° 0 mm 3 m/s 633 mmHg 13%
    21:00 +37°C° 0 mm 3 m/s 633 mmHg 14%
    22:00 +35°C° 0 mm 2 m/s 633 mmHg 15%
    23:00 +35°C° 0 mm 2 m/s 632 mmHg 16%

    23 Julho, Segunda-feira

    Tempo Temperatura Precipitação Vento Pressão Humidade
    00:00 +33°C° 0 mm 1 m/s 632 mmHg 17%
    01:00 +32°C° 0 mm 1 m/s 632 mmHg 17%
    02:00 +31°C° 0 mm 1 m/s 631 mmHg 17%
    03:00 +31°C° 0 mm 1 m/s 631 mmHg 17%
    04:00 +30°C° 0 mm 1 m/s 631 mmHg 18%
    05:00 +30°C° 0 mm 1 m/s 631 mmHg 17%
    06:00 +31°C° 0 mm 1 m/s 632 mmHg 17%
    07:00 +31°C° 0 mm 1 m/s 632 mmHg 17%
    08:00 +33°C° 0 mm 1 m/s 633 mmHg 14%
    09:00 +34°C° 0 mm 1 m/s 633 mmHg 11%
    10:00 +36°C° 0 mm 1 m/s 634 mmHg 8%
    11:00 +37°C° 0 mm 1 m/s 633 mmHg 8%
    12:00 +39°C° 0 mm 1 m/s 633 mmHg 7%
    13:00 +40°C° 0 mm 2 m/s 633 mmHg 7%
    14:00 +40°C° 0 mm 2 m/s 633 mmHg 7%
    15:00 +40°C° 0 mm 2 m/s 632 mmHg 7%
    16:00 +41°C° 0 mm 2 m/s 632 mmHg 7%
    17:00 +40°C° 0 mm 3 m/s 632 mmHg 7%
    18:00 +39°C° 0 mm 3 m/s 632 mmHg 8%
    19:00 +40°C° 0 mm 4 m/s 632 mmHg 9%
    20:00 +37°C° 0 mm 3 m/s 632 mmHg 10%
    21:00 +36°C° 0 mm 2 m/s 632 mmHg 11%
    22:00 +35°C° 0 mm 2 m/s 632 mmHg 13%
    23:00 +34°C° 0 mm 2 m/s 632 mmHg 13%
    Mostrar mais